Flag for U.S.A. Weather past 2 weeks in San Antonio, Texas, U.S.A.

Now
96 °F

Passing clouds.


Feels Like: 98 °F
Forecast: 77 / 96 °F
Wind: 10 mph from East

Location: San Antonio International Airport

Current Time: Aug 1, 2015 at 2:15:17 PM

Latest Report: Aug 1, 2015 at 1:51 PM


Visibility: 10 mi

Pressure: 29.93 "Hg

Humidity: 35%

Dew point: 64 °F

Location of San AntonioLocation

Historic Weather in San Antonio — Graph

°F

San Antonio temperature yesterday

Maximum temperature yesterday: 98 °F (at 1:51 PM)
Minimum temperature yesterday: 80 °F (at 7:51 AM)
Average temperature yesterday: 87 °F

Past Weeks' High & Low Weather Summary

 TemperatureHumidityPressure
High98 °F (Jul 27, 4:51 PM)88% (Jul 20, 4:51 AM)30.06 "Hg (Jul 20, 4:51 AM)
Low76 °F (Jul 21, 6:51 AM)32% (Jul 30, 3:51 PM)29.77 "Hg (Jul 21, 6:51 PM)
Average86 °F62%29.92 "Hg
* Reported Jul 17 12:51 PM — Aug 1 12:51 PM, San Antonio, Weather by CustomWeather, © 2015

Note: Actual official high and low records may vary slightly from our data, if they occured in-between our weather recording intervals... More about our weather records

Advertising

San Antonio weather history for previous 24 hours

 ConditionsComfort  
Time TempWeatherWind HumidityBarometerVisibility
12:51 PM
Sat, Aug 1
93 °FPassing clouds.6 mph44%29.95 "Hg10 mi
11:51 AM91 °FScattered clouds.No wind50%29.96 "Hg10 mi
10:51 AM90 °FScattered clouds.13 mph52%29.97 "Hg10 mi
9:51 AM86 °FScattered clouds.8 mph61%29.96 "Hg10 mi
8:51 AM83 °FScattered clouds.8 mph63%29.95 "Hg10 mi
7:51 AM80 °FPassing clouds.3 mph74%29.94 "Hg10 mi
6:51 AM77 °FPassing clouds.6 mph82%29.92 "Hg10 mi
5:51 AM77 °FPassing clouds.3 mph82%29.92 "Hg10 mi
4:51 AM77 °FPassing clouds.6 mph85%29.93 "Hg10 mi
3:51 AM77 °FPassing clouds.8 mph85%29.92 "Hg10 mi
2:51 AM78 °FPassing clouds.5 mph82%29.92 "Hg10 mi
1:51 AM79 °FPassing clouds.6 mph79%29.94 "Hg10 mi
12:51 AM80 °FPassing clouds.No wind76%29.95 "Hg10 mi
11:51 PM
Fri, Jul 31
83 °FPassing clouds.5 mph68%29.97 "Hg10 mi
10:51 PM84 °FPassing clouds.5 mph63%29.96 "Hg10 mi
9:51 PM87 °FPartly cloudy.10 mph55%29.95 "Hg10 mi
8:51 PM88 °FPartly sunny.8 mph54%29.93 "Hg10 mi
7:51 PM90 °FBroken clouds.8 mph52%29.91 "Hg10 mi
6:51 PM91 °FPartly sunny.6 mph50%29.88 "Hg10 mi
5:51 PM84 °FPartly sunny.8 mph65%29.89 "Hg10 mi
4:51 PM83 °FBroken clouds.14 mph63%29.91 "Hg10 mi
4:01 PM81 °FThunderstorms. Partly sunny.18 mph65%30.00 "Hg10 mi
2:51 PM98 °FPartly sunny.6 mph35%29.94 "Hg10 mi
Weather by CustomWeather, © 2015

See weather overviewHow to use our weather pages